| time (UTC) | temp F | wind direction | speed knots | gust knots | rain 1hr in | rain 24hr in | rain mn in | humidity % | barometer mb |
| 20260505070035 | 48 | 150 | 0.0 | 0.0 | 0.00 | 0.00 | 0.00 | 87 | 1015.7 |
| 20260505064521 | 48 | 150 | 0.0 | 0.9 | 0.00 | 0.00 | 0.00 | 87 | 1015.7 |
| 20260505063021 | 48 | 150 | 0.0 | 1.7 | 0.00 | 0.00 | 0.00 | 87 | 1015.8 |
| 20260505061523 | 49 | 150 | 0.9 | 1.7 | 0.00 | 0.00 | 0.00 | 87 | 1016.0 |
| 20260505060016 | 49 | 153 | 0.0 | 3.5 | 0.00 | 0.00 | 0.00 | 86 | 1016.1 |
| 20260505054515 | 49 | 153 | 0.9 | 1.7 | 0.00 | 0.00 | 0.00 | 86 | 1016.1 |
| 20260505053015 | 50 | 150 | 0.0 | 1.7 | 0.00 | 0.00 | 0.00 | 84 | 1016.3 |
| 20260505051514 | 50 | 150 | 0.0 | 3.5 | 0.00 | 0.00 | 0.00 | 85 | 1016.3 |
| 20260505041503 | 51 | 154 | 0.0 | 1.7 | 0.00 | 0.00 | 0.00 | 82 | 1016.4 |
| 20260505040003 | 51 | 155 | 0.0 | 0.0 | 0.00 | 0.00 | 0.00 | 82 | 1016.5 |
| 20260505034501 | 52 | 151 | 0.0 | 1.7 | 0.00 | 0.00 | 0.00 | 81 | 1016.5 |
| 20260505033104 | 53 | 144 | 0.9 | 3.5 | 0.00 | 0.00 | 0.00 | 79 | 1016.7 |
| 20260505031608 | 53 | 150 | 0.0 | 4.3 | 0.00 | 0.00 | 0.00 | 78 | 1016.8 |
| 20260505030110 | 54 | 150 | 0.9 | 2.6 | 0.00 | 0.00 | 0.00 | 77 | 1016.8 |
| 20260505024606 | 54 | 154 | 1.7 | 3.5 | 0.00 | 0.00 | 0.00 | 76 | 1016.7 |
| 20260505023058 | 55 | 130 | 0.0 | 4.3 | 0.00 | 0.00 | 0.00 | 75 | 1016.7 |
| 20260505021600 | 55 | 135 | 0.9 | 2.6 | 0.00 | 0.00 | 0.00 | 76 | 1016.6 |
| 20260505020057 | 56 | 136 | 0.0 | 4.3 | 0.00 | 0.00 | 0.00 | 75 | 1016.6 |
| 20260505014609 | 56 | 138 | 0.0 | 3.5 | 0.00 | 0.00 | 0.00 | 75 | 1016.4 |
| 20260505013056 | 56 | 138 | 1.7 | 4.3 | 0.00 | 0.00 | 0.00 | 72 | 1016.1 |
| 20260505011606 | 58 | 107 | 0.0 | 0.0 | 0.00 | 0.00 | 0.00 | 70 | 1016.1 |
| 20260505010055 | 59 | 110 | 0.0 | 1.7 | 0.00 | 0.00 | 0.00 | 68 | 1016.0 |
| 20260505004555 | 60 | 96 | 1.7 | 4.3 | 0.00 | 0.00 | 0.00 | 65 | 1015.9 |
| 20260505003054 | 61 | 162 | 0.9 | 1.7 | 0.00 | 0.00 | 0.00 | 65 | 1015.6 |
| 20260505001554 | 63 | 163 | 0.9 | 3.5 | 0.00 | 0.00 | 0.00 | 62 | 1015.4 |
| 20260505000107 | 64 | 360 | 0.0 | 6.1 | 0.00 | 0.00 | 0.00 | 53 | 1015.5 |
| 20260504234552 | 66 | 141 | 0.9 | 5.2 | 0.00 | 0.00 | 0.00 | 51 | 1015.3 |
| 20260504233106 | 67 | 156 | 1.7 | 6.1 | 0.00 | 0.00 | 0.00 | 52 | 1015.2 |
| 20260504231551 | 67 | 179 | 1.7 | 5.2 | 0.00 | 0.00 | 0.00 | 49 | 1015.2 |
| 20260504230050 | 67 | 152 | 0.9 | 4.3 | 0.00 | 0.00 | 0.00 | 45 | 1015.2 |
| 20260504224556 | 68 | 149 | 1.7 | 7.8 | 0.00 | 0.00 | 0.00 | 45 | 1015.2 |
| 20260504223105 | 68 | 159 | 2.6 | 6.1 | 0.00 | 0.00 | 0.00 | 43 | 1015.2 |
| 20260504221547 | 69 | 196 | 3.5 | 7.8 | 0.00 | 0.00 | 0.00 | 43 | 1015.2 |
| 20260504220046 | 69 | 96 | 3.5 | 9.6 | 0.00 | 0.00 | 0.00 | 46 | 1015.1 |
| 20260504214544 | 70 | 205 | 3.5 | 10.4 | 0.00 | 0.00 | 0.00 | 44 | 1015.1 |
| 20260504213054 | 70 | 127 | 5.2 | 10.4 | 0.00 | 0.00 | 0.00 | 42 | 1015.1 |
| 20260504211543 | 71 | 212 | 2.6 | 11.3 | 0.00 | 0.00 | 0.00 | 45 | 1015.1 |
| 20260504210042 | 73 | 196 | 3.5 | 10.4 | 0.00 | 0.00 | 0.00 | 39 | 1015.1 |
| 20260504204547 | 73 | 236 | 4.3 | 8.7 | 0.00 | 0.00 | 0.00 | 38 | 1015.2 |
| 20260504203051 | 72 | 238 | 4.3 | 8.7 | 0.00 | 0.00 | 0.00 | 42 | 1015.1 |
| 20260504201538 | 72 | 323 | 2.6 | 4.3 | 0.00 | 0.00 | 0.00 | 44 | 1015.3 |
| 20260504200035 | 72 | 217 | 2.6 | 6.1 | 0.00 | 0.00 | 0.00 | 40 | 1015.7 |
| 20260504194534 | 72 | 211 | 1.7 | 6.1 | 0.00 | 0.00 | 0.00 | 43 | 1015.7 |
| 20260504193030 | 72 | 318 | 2.6 | 7.8 | 0.00 | 0.00 | 0.00 | 42 | 1015.9 |
| 20260504191528 | 72 | 211 | 2.6 | 11.3 | 0.00 | 0.00 | 0.00 | 50 | 1016.2 |
| 20260504190027 | 72 | 209 | 3.5 | 10.4 | 0.00 | 0.00 | 0.00 | 43 | 1016.2 |
| 20260504184527 | 72 | 195 | 7.8 | 11.3 | 0.00 | 0.00 | 0.00 | 42 | 1016.3 |
| 20260504183024 | 71 | 209 | 3.5 | 8.7 | 0.00 | 0.00 | 0.00 | 46 | 1016.4 |
| 20260504181521 | 70 | 174 | 0.9 | 6.1 | 0.00 | 0.00 | 0.00 | 46 | 1016.7 |
| 20260504180020 | 69 | 141 | 2.6 | 9.6 | 0.00 | 0.00 | 0.00 | 50 | 1016.9 |
| 20260504174518 | 70 | 161 | 3.5 | 9.6 | 0.00 | 0.00 | 0.00 | 49 | 1017.0 |
| 20260504173016 | 69 | 59 | 1.7 | 6.1 | 0.00 | 0.00 | 0.00 | 46 | 1017.1 |
| 20260504171515 | 69 | 38 | 2.6 | 7.0 | 0.00 | 0.00 | 0.00 | 47 | 1017.3 |
| 20260504150103 | 63 | 239 | 2.6 | 7.0 | 0.00 | 0.00 | 0.00 | 52 | 1019.6 |
| 20260504090112 | 38 | 72 | 2.6 | 4.3 | 0.00 | 0.00 | 0.00 | 92 | 1019.0 |
| 20260504081553 | 39 | 71 | 1.7 | 3.5 | 0.00 | 0.00 | 0.00 | 89 | 1018.7 |